Location: Azul
(36.7830°S, 59.8500°W)
Time: 22:13:49
(UTC-03:00)

ISS - Pass Details

Date: 05 July 2020
Orbit: 417 x 421 km, 51.6° (Epoch: 09 July)

Event Time Altitude Azimuth Distance (km) Brightness Sun altitude
Rises 18:38:54 0° 217° (SW) 2,406 0.3 -8.6°
Reaches altitude 10° 18:42:07 10° 185° (S) 1,535 -1.1 -9.2°
Maximum altitude 18:43:35 12° 160° (SSE) 1,407 -1.5 -9.5°
Enters shadow 18:44:42 11° 140° (SE) 1,481 -1.5 -9.7°
